Location: Kitt Peak
(31.9633°N, 111.6000°W)
Time: 09:30:42
(UTC-07:00)

Amateur Radio Satellites - All Passes

Search period start: 02 October 2014 09:00
Search period end: 03 October 2014 09:00
Location: Kitt Peak, 31.9633°N, 111.6000°W

Satellite Date Start Highest point End Downlink Frequencies (MHz)
Time Altitude Azimuth
PCSat 02 Oct 09:15:45 09:20:53 44° 299° (WNW) 09:26:04 145.825 MHz
HO-68 02 Oct 09:26:46 09:33:58 77° 104° (ESE) 09:41:09 435.675 MHz FM
ZACube-1 02 Oct 09:32:57 09:33:50 11° 92° (E) 09:34:42 437.345 MHz
Oscar 11 02 Oct 09:52:37 09:56:50 52° 100° (E) 10:01:01 145.825 FM, Beacon 2401.500 USB
AO-40 02 Oct 10:05:58 10:14:51 16° 211° (SSW) 10:19:27 Beacon 2401.320
FUNcube-1 02 Oct 10:20:40 10:24:57 42° 99° (E) 10:29:06 145.950 - 145.970 MHz USB
UKube-1 02 Oct 10:23:27 10:27:40 50° 286° (WNW) 10:31:53 145.840 MHz, 145.915 MHz
Sapphire 02 Oct 10:39:03 10:39:33 10° 312° (NW) 10:40:04 437.095 MHz 1200 baud AX-25 AFSK
RS-15 02 Oct 10:48:35 10:59:37 59° 58° (ENE) 11:11:04 29.354 - 29.394 USB, Beacon 29.352 USB
ZACube-1 02 Oct 11:06:07 11:10:30 52° 285° (WNW) 11:14:46 437.345 MHz
HO-68 02 Oct 11:16:35 11:20:50 17° 300° (WNW) 11:25:06 435.675 MHz FM
Oscar 11 02 Oct 11:31:36 11:32:30 11° 293° (WNW) 11:33:23 145.825 FM, Beacon 2401.500 USB
FUNcube-1 02 Oct 11:58:36 12:00:53 14° 293° (WNW) 12:03:08 145.950 - 145.970 MHz USB
Oscar 16 02 Oct 12:24:16 12:28:24 25° 69° (ENE) 12:32:32 437.025 USB, Beacon 2401.1428
AO-27 02 Oct 12:39:03 12:41:19 13° 65° (ENE) 12:43:35 436.795 MHz FM
Saudisat 1A 02 Oct 12:43:01 12:47:13 47° 114° (ESE) 12:51:26 436.775 MHz
RS-15 02 Oct 13:01:46 13:11:22 34° 254° (WSW) 13:21:21 29.354 - 29.394 USB, Beacon 29.352 USB
Gurwin Techsat 1B 02 Oct 13:12:16 13:14:38 13° 65° (ENE) 13:17:00 435.225 FM
Oscar 19 02 Oct 13:20:51 13:26:03 89° 257° (WSW) 13:31:16 437.125 CW, 437.150 USB
JAS-1B 02 Oct 13:23:15 13:31:01 63° 74° (ENE) 13:37:31 435.800 - 435.900 CW/SSB
ITAMSAT 1 02 Oct 13:36:22 13:41:21 51° 73° (ENE) 13:46:22 435.822 SSB
Uribyol 2 02 Oct 13:36:46 13:41:48 55° 74° (ENE) 13:46:53 436.500 FM
TMSAT-1 02 Oct 13:38:42 13:42:08 18° 67° (ENE) 13:45:34 436.925 FM
Oscar 10/S400 02 Oct 13:46:28 14:07:44 42° 152° (SSE) 14:27:25 145.825 - 145.975 CW/USB, Beacon 145.810 USB
AO-Echo 02 Oct 13:59:39 14:04:19 74° 258° (WSW) 14:09:01 ?
Oscar 16 02 Oct 14:02:58 14:07:32 32° 262° (W) 14:12:09 437.025 USB, Beacon 2401.1428
AO-27 02 Oct 14:15:08 14:20:14 62° 259° (WSW) 14:25:22 436.795 MHz FM
Saudisat 1A 02 Oct 14:24:29 14:27:00 15° 309° (NW) 14:29:32 436.775 MHz
Gurwin Techsat 1B 02 Oct 14:48:45 14:53:59 64° 259° (WSW) 14:59:16 435.225 FM
KITSAT 1 02 Oct 15:12:51 15:19:40 31° 106° (ESE) 15:26:28 435.175 FM
JAS-1B 02 Oct 15:16:32 15:21:38 19° 263° (W) 15:26:17 435.800 - 435.900 CW/SSB
TMSAT-1 02 Oct 15:16:35 15:21:37 46° 260° (W) 15:26:42 436.925 FM
MaSat-1 02 Oct 15:16:59 15:19:48 35° 253° (WSW) 15:22:18 437.345 MHz
ITAMSAT 1 02 Oct 15:18:18 15:21:03 15° 266° (W) 15:23:50 435.822 SSB
Uribyol 2 02 Oct 15:19:07 15:21:32 13° 267° (W) 15:23:58 436.500 FM
Uosat F 02 Oct 15:22:54 15:27:08 28° 70° (ENE) 15:31:22 435.120 FM
AO-7 02 Oct 15:33:00 15:41:07 62° 69° (ENE) 15:49:13 29.400 - 29.500 MHz
Hamsat 02 Oct 16:44:15 16:47:16 19° 70° (ENE) 16:50:16 145.90 MHz
Uosat F 02 Oct 17:01:45 17:05:49 25° 263° (W) 17:09:54 435.120 FM
KITSAT 1 02 Oct 17:06:56 17:14:40 49° 302° (WNW) 17:22:27 435.175 FM
OPAL 02 Oct 17:19:34 17:24:38 73° 104° (ESE) 17:29:36 ?
AO-7 02 Oct 17:27:57 17:34:13 24° 263° (W) 17:40:30 29.400 - 29.500 MHz
JAS-2 02 Oct 17:41:08 17:46:17 76° 258° (WSW) 17:51:38 435.800 - 435.900 CW/SSB, 435.910 FM
PANSAT 02 Oct 17:41:41 17:44:45 22° 161° (SSE) 17:47:48 not established
Sapphire 02 Oct 17:43:23 17:48:02 28° 57° (ENE) 17:52:39 437.095 MHz 1200 baud AX-25 AFSK
SO-50 02 Oct 18:00:39 18:04:59 57° 115° (ESE) 18:09:27 436.795 FM
PCSat 02 Oct 18:08:20 18:13:37 52° 62° (ENE) 18:18:52 145.825 MHz
Hamsat 02 Oct 18:19:13 18:22:58 28° 263° (W) 18:26:43 145.90 MHz
STRAND 1 02 Oct 18:24:36 18:28:43 24° 96° (E) 18:32:48 ?
OPAL 02 Oct 19:01:42 19:02:49 11° 299° (WNW) 19:03:56 ?
SO-67 02 Oct 19:16:38 19:19:51 38° 261° (W) 19:23:06 435.3500 MHz FM
AO-40 02 Oct 19:19:36 01:53:08 54° 183° (S) 05:13:32 Beacon 2401.320
PANSAT 02 Oct 19:20:52 19:24:34 45° 173° (S) 19:28:16 not established
Sapphire 02 Oct 19:26:38 19:31:22 31° 252° (WSW) 19:36:05 437.095 MHz 1200 baud AX-25 AFSK
SO-50 02 Oct 19:43:43 19:45:54 13° 311° (NW) 19:48:07 436.795 FM
HO-68 02 Oct 19:50:26 19:56:43 35° 67° (ENE) 20:03:02 435.675 MHz FM
PCSat 02 Oct 19:53:19 19:56:31 16° 256° (WSW) 19:59:44 145.825 MHz
ISS 02 Oct 19:57:29 20:00:28 32° 130° (SE) 20:03:29 145.800 FM
UOSAT-12 02 Oct 19:58:15 20:02:50 80° 117° (ESE) 20:07:31 437.025 FM, 437.400 FM
STRAND 1 02 Oct 20:03:20 20:07:51 32° 289° (WNW) 20:12:21 ?
Oscar 11 02 Oct 20:43:28 20:46:53 23° 71° (ENE) 20:50:17 145.825 FM, Beacon 2401.500 USB
PANSAT 02 Oct 21:00:49 21:04:32 46° 186° (S) 21:08:14 not established
FUNcube-1 02 Oct 21:12:50 21:16:09 20° 69° (ENE) 21:19:30 145.950 - 145.970 MHz USB
UKube-1 02 Oct 21:13:46 21:18:04 73° 76° (ENE) 21:22:24 145.840 MHz, 145.915 MHz
Saudisat 1A 02 Oct 21:16:32 21:17:49 11° 48° (NE) 21:19:07 436.775 MHz
ISS 02 Oct 21:34:44 21:37:12 19° 324° (NW) 21:39:41 145.800 FM
HO-68 02 Oct 21:37:50 21:44:15 36° 261° (W) 21:50:45 435.675 MHz FM
UOSAT-12 02 Oct 21:42:24 21:43:32 11° 313° (NW) 21:44:41 437.025 FM, 437.400 FM
ZACube-1 02 Oct 21:57:05 22:01:34 68° 76° (ENE) 22:06:09 437.345 MHz
Oscar 11 02 Oct 22:19:24 22:22:54 24° 264° (W) 22:26:26 145.825 FM, Beacon 2401.500 USB
PANSAT 02 Oct 22:41:16 22:44:22 23° 198° (SSW) 22:47:28 not established
FUNcube-1 02 Oct 22:48:20 22:52:17 30° 263° (W) 22:56:19 145.950 - 145.970 MHz USB
Saudisat 1A 02 Oct 22:53:26 22:57:49 68° 244° (WSW) 23:02:11 436.775 MHz
Oscar 16 03 Oct 00:42:33 00:44:29 12° 93° (E) 00:46:24 437.025 USB, Beacon 2401.1428
KITSAT 1 03 Oct 01:05:32 01:12:53 37° 55° (NE) 01:20:11 435.175 FM
RS-15 03 Oct 01:05:37 01:16:28 61° 112° (ESE) 01:27:06 29.354 - 29.394 USB, Beacon 29.352 USB
JAS-1B 03 Oct 01:14:14 01:18:07 18° 97° (E) 01:22:17 435.800 - 435.900 CW/SSB
Oscar 19 03 Oct 01:37:40 01:42:38 49° 100° (E) 01:47:33 437.125 CW, 437.150 USB
ITAMSAT 1 03 Oct 01:54:39 01:59:05 28° 97° (E) 02:03:29 435.822 SSB
Uribyol 2 03 Oct 01:54:53 01:59:26 30° 97° (E) 02:03:57 436.500 FM
AO-Echo 03 Oct 02:11:14 02:16:14 54° 100° (E) 02:21:20 ?
Oscar 16 03 Oct 02:19:04 02:24:08 59° 286° (WNW) 02:29:09 437.025 USB, Beacon 2401.1428
AO-27 03 Oct 02:33:03 02:38:17 72° 102° (ESE) 02:43:29 436.795 MHz FM
SO-50 03 Oct 02:37:49 02:40:56 17° 51° (NE) 02:44:03 436.795 FM
KITSAT 1 03 Oct 03:00:48 03:08:14 42° 252° (WSW) 03:15:39 435.175 FM
Oscar 10/S400 03 Oct 03:01:09 04:02:21 18° 254° (WSW) 05:59:56 145.825 - 145.975 CW/USB, Beacon 145.810 USB
JAS-1B 03 Oct 03:03:20 03:08:53 49° 287° (WNW) 03:15:04 435.800 - 435.900 CW/SSB
Gurwin Techsat 1B 03 Oct 03:09:54 03:15:14 79° 102° (ESE) 03:20:32 435.225 FM
Oscar 19 03 Oct 03:18:30 03:21:31 16° 294° (WNW) 03:24:31 437.125 CW, 437.150 USB
RS-15 03 Oct 03:19:38 03:29:17 34° 311° (NW) 03:38:55 29.354 - 29.394 USB, Beacon 29.352 USB
MaSat-1 03 Oct 03:20:14 03:22:20 13° 102° (ESE) 03:24:25 437.345 MHz
ITAMSAT 1 03 Oct 03:34:02 03:38:26 28° 290° (WNW) 03:42:50 435.822 SSB
Uribyol 2 03 Oct 03:34:27 03:38:44 26° 291° (WNW) 03:43:00 436.500 FM
Uosat F 03 Oct 03:37:02 03:39:15 13° 93° (E) 03:41:27 435.120 FM
TMSAT-1 03 Oct 03:37:09 03:42:28 77° 284° (WNW) 03:47:45 436.925 FM
AO-7 03 Oct 03:41:00 03:47:43 27° 97° (E) 03:54:24 29.400 - 29.500 MHz
AO-Echo 03 Oct 03:51:45 03:54:31 15° 293° (WNW) 03:57:20 ?
ISS 03 Oct 04:06:11 04:09:24 47° 42° (NE) 04:12:36 145.800 FM
AO-27 03 Oct 04:15:36 04:17:07 11° 296° (WNW) 04:18:37 436.795 MHz FM
SO-50 03 Oct 04:17:03 04:21:45 51° 246° (WSW) 04:26:28 436.795 FM
OPAL 03 Oct 04:29:25 04:34:37 76° 74° (ENE) 04:39:50 ?
UOSAT-12 03 Oct 04:33:26 04:36:51 20° 52° (NE) 04:40:14 437.025 FM, 437.400 FM
MaSat-1 03 Oct 04:53:33 04:58:19 55° 294° (WNW) 05:02:54 437.345 MHz
Gurwin Techsat 1B 03 Oct 04:53:38 04:54:28 10° 297° (WNW) 04:55:17 435.225 FM
JAS-2 03 Oct 04:54:29 04:59:46 22° 95° (E) 05:05:18 435.800 - 435.900 CW/SSB, 435.910 FM
Uosat F 03 Oct 05:13:21 05:18:16 55° 286° (WNW) 05:23:11 435.120 FM
AO-7 03 Oct 05:32:42 05:40:42 55° 292° (WNW) 05:48:43 29.400 - 29.500 MHz
STRAND 1 03 Oct 05:36:19 05:40:05 21° 68° (ENE) 05:43:53 ?
ISS 03 Oct 05:44:47 05:45:43 11° 235° (SW) 05:46:40 145.800 FM
Hamsat 03 Oct 06:09:10 06:13:20 71° 101° (E) 06:17:29 145.90 MHz
UOSAT-12 03 Oct 06:12:46 06:17:07 38° 247° (WSW) 06:21:23 437.025 FM, 437.400 FM
JAS-2 03 Oct 06:38:02 06:44:53 61° 286° (WNW) 06:52:23 435.800 - 435.900 CW/SSB, 435.910 FM
SO-67 03 Oct 06:45:26 06:47:51 18° 96° (E) 06:50:15 435.3500 MHz FM
PCSat 03 Oct 07:05:11 07:07:30 13° 103° (ESE) 07:09:48 145.825 MHz
STRAND 1 03 Oct 07:14:23 07:19:00 35° 262° (W) 07:23:39 ?
RS-15 03 Oct 08:03:17 08:07:02 12° 25° (NNE) 08:10:48 29.354 - 29.394 USB, Beacon 29.352 USB
SO-67 03 Oct 08:18:21 08:20:42 17° 288° (WNW) 08:23:01 435.3500 MHz FM
Sapphire 03 Oct 08:19:36 08:24:57 69° 112° (ESE) 08:30:20 437.095 MHz 1200 baud AX-25 AFSK
PCSat 03 Oct 08:44:56 08:50:16 63° 297° (WNW) 08:55:40 145.825 MHz
